Weather History for Lovelock, NV

Change the Weather History Date:

Saturday, July 13, 2013

  Actual Average Record
Temperature  
Mean Temperature 70 °F -  
Max Temperature 93 °F 94 °F 105 °F (1960)
Min Temperature 48 °F 55 °F 46 °F (1956)
Cooling Degree Days 4    
Growing Degree Days 20 (Base 50)    
Moisture  
Dew Point 17 °F    
Average Humidity 13    
Maximum Humidity 33    
Minimum Humidity 4    
Precipitation  
Precipitation 0.00 in - - ()
Sea Level Pressure  
Sea Level Pressure 29.91 in    
Wind  
Wind Speed 5 mph (NNW)    
Max Wind Speed 17 mph    
Max Gust Speed 17 mph    
Visibility 10 miles    
Events      
Averages and records for this station are not official NWS values.
T = Trace of Precipitation, MM = Missing Value Source: NWS Daily Summary

Daily Weather History Graph

Daily Weather History Graph

Search for Another Location

Airport:

Trip Planner

Search our weather history database for the weather conditions in past years. The results will help you decide how hot, cold, wet, or windy it might be!

Date:

Astronomy

Jul. 13, 2013 Rise Set
Actual Time 5:36 AM PDT 8:23 PM PDT
Civil Twilight 5:04 AM PDT 8:55 PM PDT
Nautical Twilight 4:24 AM PDT 9:35 PM PDT
Astronomical Twilight 3:38 AM PDT 10:20 PM PDT
Moon 10:57 AM PDT (7/13) 11:06 PM PDT (7/13)
Length of Visible Light 15h 50m
Length of Day
14h 46m
Waxing Crescent, 26% of the Moon is Illuminated
Jul 13
Waxing Crescent
Jul 15
First Quarter
Jul 22
Full
Jul 29
Last Quarter
Aug 6
New

Hourly Weather History & Observations

Time (PDT) Temp. Dew Point Humidity Pressure Visibility Wind Dir Wind Speed Gust Speed Precip Events Conditions
12:53 AM 66.0 °F 19.9 °F 17% 29.88 in 10.0 mi NE 5.8 mph - N/A   Clear
1:53 AM 66.9 °F 19.0 °F 16% 29.89 in 10.0 mi NNW 4.6 mph - N/A   Clear
2:53 AM 59.0 °F 25.0 °F 27% 29.91 in 10.0 mi West 3.5 mph - N/A   Clear
3:53 AM 54.0 °F 19.0 °F 25% 29.92 in 10.0 mi Calm Calm - N/A   Clear
4:53 AM 53.1 °F 19.9 °F 27% 29.93 in 10.0 mi Calm Calm - N/A   Clear
5:53 AM 48.9 °F 21.0 °F 33% 29.94 in 10.0 mi Calm Calm - N/A   Clear
6:53 AM 57.0 °F 24.1 °F 28% 29.95 in 10.0 mi Calm Calm - N/A   Clear
7:53 AM 68.0 °F 25.0 °F 20% 29.95 in 10.0 mi NE 4.6 mph - N/A   Clear
8:53 AM 75.9 °F 21.0 °F 13% 29.96 in 10.0 mi ENE 4.6 mph - N/A   Clear
9:53 AM 81.0 °F 23.0 °F 12% 29.94 in 10.0 mi Variable 4.6 mph - N/A   Clear
10:53 AM 82.0 °F 21.0 °F 10% 29.94 in 10.0 mi SE 5.8 mph - N/A   Clear
11:53 AM 84.9 °F 17.1 °F 8% 29.93 in 10.0 mi ESE 6.9 mph - N/A   Clear
12:53 PM 88.0 °F 8.1 °F 5% 29.92 in 10.0 mi Variable 4.6 mph - N/A   Clear
1:53 PM 89.1 °F 17.1 °F 7% 29.90 in 10.0 mi Calm Calm - N/A   Clear
2:53 PM 91.0 °F 14.0 °F 6% 29.90 in 10.0 mi SSW 10.4 mph 17.3 mph N/A   Clear
3:53 PM 91.9 °F 17.1 °F 6% 29.88 in 10.0 mi WSW 5.8 mph - N/A   Clear
4:53 PM 91.9 °F 15.1 °F 6% 29.86 in 10.0 mi Calm Calm - N/A   Clear
5:53 PM 91.9 °F 12.9 °F 5% 29.86 in 10.0 mi NW 4.6 mph - N/A   Clear
6:53 PM 91.9 °F 6.1 °F 4% 29.85 in 10.0 mi NW 6.9 mph - N/A   Clear
7:53 PM 88.0 °F 8.1 °F 5% 29.85 in 10.0 mi NNW 11.5 mph - N/A   Clear
8:53 PM 75.0 °F 9.0 °F 8% 29.86 in 10.0 mi NNW 10.4 mph - N/A   Clear
9:53 PM 71.1 °F 10.9 °F 10% 29.88 in 10.0 mi NW 10.4 mph - N/A   Clear
10:53 PM 78.1 °F 18.0 °F 10% 29.87 in 10.0 mi NW 17.3 mph - N/A   Clear
11:36 PM 77.0 °F 21.9 °F 13% 30.02 in 10.0 mi NNW 15.0 mph - N/A   Clear
11:53 PM 77.0 °F 21.9 °F 13% 29.89 in 10.0 mi NW 16.1 mph - N/A   Clear